Location: Chuathbaluk
(61.5726°N, 159.2454°W)
Time: 05:50:36
(UTC+00:00)

FO-99 - Pass Details

Date: 22 January 2021
Orbit: 473 x 506 km, 97.2° (Epoch: 08 March)

Event Time Altitude Azimuth Distance (km) Brightness Sun altitude
Exits shadow 04:25:21 11° 19° (NNE) 1,675 ? -14.5°
Drops below altitude 10° 04:25:27 10° 17° (NNE) 1,695 ? -14.5°
Sets 04:28:26 0° 350° (N) 2,586 ? -14.8°
